Wind_Speed
23 27 33 33 35 32 26 19 7 10 18 26 30 32 38 38 31 18 11 8 7 4 12 9 14 14 24 22 11 14 12 11 10 6 4 5 8 10 13 15 19 18 18 21 23 22 21 19 14
24 22 28 33 37 40 38 33 25 18 9 3 10 15 25 21 22 19 10 10 6 8 10 12 11 19 22 12 9 9 10 11 10 8 9 8 6 7 9 11 16 16 18 20 23 24 21 21 14
19 24 33 34 37 41 43 41 33 26 19 17 14 2 1 14 23 11 3 8 12 11 9 15 18 19 15 5 6 9 11 12 11 8 9 4 4 5 6 8 13 16 17 16 19 22 19 18 17
32 31 32 35 36 40 39 40 41 38 35 29 22 14 1 3 3 9 9 13 13 13 26 22 20 15 4 6 7 9 12 11 11 6 4 4 2 1 7 7 12 12 17 15 16 19 18 14 15
35 38 39 38 34 36 37 40 39 38 38 37 35 24 12 5 2 7 10 13 9 7 7 8 2 4 7 5 6 10 11 12 10 6 2 3 2 4 5 5 11 12 10 15 15 16 16 15 11
44 47 45 39 33 34 35 36 35 36 36 35 33 31 27 23 18 15 14 13 11 11 9 9 9 7 6 4 5 7 8 8 9 7 5 5 6 5 7 7 11 6 5 10 16 16 13 11 12
42 45 44 41 37 35 34 35 32 30 30 29 28 26 24 21 19 17 16 15 14 13 11 10 7 6 5 3 3 4 6 7 6 7 9 10 11 10 9 13 12 5 4 6 12 13 10 9 9
29 34 38 39 39 40 36 31 29 28 27 25 25 22 20 18 17 17 17 16 14 12 9 7 5 4 4 5 5 6 6 6 7 8 9 11 13 14 15 15 13 8 9 10 11 13 12 7 4
32 34 34 28 34 36 37 34 29 25 22 20 20 18 18 15 13 12 10 9 9 8 9 8 7 7 5 4 4 5 5 6 7 9 10 12 14 15 15 15 15 14 13 13 16 14 11 7 8
29 32 31 26 24 34 34 38 35 31 24 20 18 15 11 13 11 10 9 9 8 6 5 4 4 5 5 8 9 11 12 13 15 16 15 15 15 15 16 15 14 15 17 22 21 18 12 10 9
18 26 27 25 25 25 31 33 32 32 31 25 20 20 13 11 9 8 5 5 5 4 4 7 9 10 10 10 12 13 14 16 17 18 20 20 19 20 21 21 17 15 13 17 17 16 15 11 11
15 21 24 23 20 26 30 32 32 32 33 25 22 22 21 16 12 12 11 10 9 8 10 9 11 13 14 15 17 18 19 20 23 25 24 24 24 22 24 25 25 22 20 19 17 17 17 16 12
22 19 21 20 22 27 27 29 29 32 34 30 25 23 23 21 17 14 15 16 16 14 14 15 16 17 18 19 21 24 26 27 30 29 30 29 27 27 27 27 27 28 27 26 23 20 17 19 17
14 17 16 17 22 23 25 28 28 32 33 33 29 26 26 27 24 20 15 13 15 16 14 16 20 21 22 24 24 26 28 28 28 29 29 29 29 28 28 29 29 29 29 31 30 27 23 18 19
12 14 15 16 21 22 23 23 24 31 31 32 31 32 30 27 26 26 24 20 15 15 17 19 21 22 23 24 27 28 30 31 31 31 31 31 31 31 31 31 30 30 30 31 32 33 29 26 24
8 10 12 18 18 23 22 17 22 32 29 30 30 32 33 30 29 29 28 23 19 16 16 17 18 21 23 24 26 25 27 28 30 31 33 35 36 35 34 35 33 31 27 27 31 35 36 33 32
4 7 14 19 17 24 22 20 19 24 31 30 29 33 34 32 32 31 27 25 24 22 21 22 23 24 25 26 27 25 23 23 25 26 31 34 36 37 35 34 34 34 31 29 29 36 39 40 41
7 6 15 18 17 21 21 20 19 23 30 35 34 34 35 35 34 33 29 25 24 24 24 25 26 26 28 29 29 25 17 25 25 27 29 31 32 32 31 31 32 32 35 35 33 31 33 37 40
11 5 6 16 19 19 22 21 24 27 33 35 36 35 35 35 34 33 30 29 26 24 24 25 27 29 31 29 27 26 24 26 28 29 34 35 32 31 31 29 29 30 32 35 36 37 36 33 36
15 9 13 20 20 21 24 21 24 29 34 37 37 34 35 37 34 34 34 32 30 27 26 30 30 32 31 28 25 24 29 28 29 35 36 34 33 32 31 30 31 32 32 33 35 37 38 38 37
17 15 23 21 18 23 28 25 27 31 37 40 38 35 36 34 33 37 38 40 38 36 34 33 33 34 34 29 29 35 33 30 39 39 38 37 38 36 34 33 34 33 33 33 34 35 39 40 40
17 15 14 10 24 29 24 24 29 33 41 40 37 37 39 38 42 43 44 44 43 42 40 38 36 36 36 35 34 31 32 40 42 42 39 35 38 36 36 36 36 36 36 36 36 37 39 41 44
7 5 17 21 22 22 22 25 29 37 40 41 41 42 44 44 47 46 46 44 43 45 43 43 44 42 41 41 36 34 37 40 42 47 43 33 34 37 33 35 37 37 36 38 39 41 41 42 43
18 19 25 24 21 21 22 24 30 37 40 42 43 43 41 43 47 51 51 50 47 43 41 42 45 44 42 39 36 36 37 41 44 43 32 34 31 31 33 31 36 39 40 39 37 37 41 44 45
25 31 32 29 28 28 30 32 32 38 37 40 44 44 41 37 42 44 42 38 41 47 44 46 44 38 39 40 39 40 44 43 36 29 35 32 34 32 33 33 31 37 46 46 46 47 46 46 44
27 30 27 27 29 31 34 33 36 42 42 45 45 45 41 40 43 43 41 38 37 44 45 43 44 47 41 34 34 37 38 38 33 32 31 35 37 31 30 29 31 33 40 48 50 51 54 53 52
31 31 29 32 32 33 36 36 42 44 47 49 47 50 46 44 44 46 45 42 41 41 37 37 38 39 39 39 32 29 29 29 35 39 50 42 58 41 30 33 52 51 51 56 62 58 58 54 56
32 30 27 32 37 34 37 40 45 46 47 48 50 50 50 48 47 51 54 54 51 48 44 40 39 36 34 36 37 32 22 24 44 35 71 68 63 55 38 45 43 43 47 51 63 71 64 56 56
29 30 35 38 36 35 39 41 45 49 51 51 52 51 52 49 54 56 58 58 57 57 54 50 48 44 44 32 33 41 28 31 38 40 66 65 38 51 59 58 52 47 45 52 57 62 55 50 48
34 34 37 36 37 44 48 48 50 52 54 56 55 54 56 50 55 62 64 61 60 60 57 53 53 48 45 37 39 31 30 32 33 46 56 51 62 61 64 65 54 52 54 56 62 58 61 50 46
Wind_Direction
44 46 45 42 44 51 65 67 94 182 203 218 219 216 226 239 255 267 283 236 200 209 304 285 288 291 310 324 346 348 348 355 6 28 111 124 78 66 61 39 31 25 34 35 48 58 53 52 41
48 48 45 48 47 57 62 74 74 84 92 195 212 219 223 242 252 257 277 161 195 296 268 261 268 308 319 325 341 360 1 6 20 65 131 147 95 82 58 32 20 27 40 37 42 50 57 63 52
53 57 55 51 50 55 62 66 72 79 75 66 65 73 233 232 238 251 224 202 269 272 253 273 280 306 325 332 43 22 26 21 42 84 131 141 89 83 37 16 32 34 34 43 42 48 47 58 59
55 53 52 53 53 56 60 66 69 70 72 78 83 86 36 285 272 303 277 284 282 261 280 286 306 309 294 98 46 46 40 34 37 59 122 116 99 42 343 352 8 27 36 47 43 43 51 45 48
62 57 57 52 51 60 62 61 62 65 67 66 66 67 74 66 223 306 282 306 290 282 289 276 88 105 115 87 66 52 45 31 28 22 312 303 321 325 316 320 345 352 1 44 47 40 38 46 49
65 60 59 55 54 59 63 62 61 66 67 66 69 70 68 68 71 69 65 65 71 74 82 88 93 108 115 97 98 71 49 29 22 9 360 329 308 307 271 288 322 321 320 38 41 36 22 34 41
63 60 59 55 51 58 63 64 60 61 68 72 69 70 79 77 76 76 76 78 77 77 77 70 62 54 46 49 52 36 30 21 11 350 345 338 329 320 303 303 311 281 268 22 18 26 22 26 33
59 51 56 50 49 49 51 56 59 59 64 73 69 57 58 62 66 68 65 65 69 70 66 63 56 38 21 352 353 354 3 4 350 342 332 323 317 314 312 317 300 272 243 281 334 345 357 19 11
64 58 52 59 50 51 51 47 47 50 52 58 76 71 54 56 50 52 58 64 65 56 52 47 49 55 58 40 5 357 352 348 337 334 328 329 330 325 324 310 308 282 276 280 302 312 323 342 329
61 51 47 53 51 46 48 48 45 44 40 41 54 69 53 43 50 40 29 32 31 26 20 353 341 333 328 324 324 323 324 323 322 323 318 311 306 307 311 316 317 304 290 291 297 290 274 292 274
52 41 40 43 49 48 46 46 47 44 35 36 28 25 39 45 26 16 5 350 348 327 316 323 319 316 310 303 300 300 299 297 301 302 300 299 294 299 297 296 296 299 312 304 299 290 276 265 274
47 44 45 43 35 32 45 41 42 43 40 34 32 26 24 15 6 340 329 319 320 306 301 297 290 287 286 287 287 286 284 285 292 294 295 295 283 284 286 289 290 291 294 292 296 292 277 256 269
47 57 39 44 39 34 39 38 44 37 35 38 37 30 25 21 16 8 354 340 328 313 305 306 296 288 283 280 283 286 290 292 293 295 297 296 292 277 273 276 279 277 280 282 281 279 283 258 257
71 59 54 43 43 30 32 32 40 33 31 30 30 29 23 13 8 5 359 335 319 318 305 299 301 301 299 295 292 295 297 298 297 296 297 297 294 287 279 271 270 274 276 274 274 272 271 268 263
67 54 60 35 28 26 27 34 38 30 25 24 24 23 22 13 3 358 355 351 340 317 303 302 302 304 301 298 297 298 297 297 299 301 300 295 294 293 288 286 282 276 267 265 271 264 264 261 262
81 52 26 24 20 17 16 26 33 20 21 18 19 19 18 12 5 356 351 347 343 340 330 317 307 300 296 294 294 294 295 299 301 302 298 298 294 288 285 284 284 283 278 263 261 266 259 255 259
5 18 21 22 11 8 18 18 12 10 14 15 10 16 15 8 5 360 352 343 337 332 328 322 316 310 306 302 297 296 302 312 315 322 322 309 303 300 294 291 289 285 281 273 265 260 261 257 258
253 347 18 20 8 2 9 19 7 359 4 6 7 10 9 6 1 357 350 340 332 329 326 321 318 313 311 308 306 305 312 326 319 321 314 310 306 306 298 293 291 288 288 284 279 271 264 263 256
253 305 358 7 2 359 349 2 354 0 2 1 4 5 360 360 356 353 346 341 333 322 317 314 310 308 303 299 303 304 310 311 320 319 325 322 309 303 300 290 283 282 278 277 275 274 273 267 262
255 299 342 346 357 343 337 354 350 352 358 354 358 358 354 354 350 349 349 344 334 327 322 324 313 308 307 300 298 303 302 305 313 318 320 318 312 297 292 292 287 281 276 269 269 270 272 271 266
278 295 321 331 341 337 333 340 342 345 352 351 352 350 349 347 344 348 351 349 344 339 334 328 322 313 308 306 295 304 299 302 317 313 321 315 309 302 297 294 292 288 281 276 272 268 269 269 268
279 313 323 337 322 333 330 333 341 345 346 345 343 342 348 344 344 348 353 351 345 340 336 331 325 321 318 312 307 301 303 302 307 312 316 322 315 307 306 303 297 292 288 283 278 272 271 270 267
279 305 331 319 326 324 329 330 340 340 341 337 336 345 346 344 343 348 351 351 343 336 333 328 327 327 325 317 313 304 303 303 304 311 322 316 321 318 304 304 304 301 296 294 290 287 282 276 269
259 273 288 309 314 320 328 328 332 339 338 333 333 342 345 344 340 345 347 345 340 333 327 327 328 329 323 322 320 311 303 302 305 312 315 312 300 302 312 311 311 307 303 300 291 284 281 279 280
261 275 282 300 301 305 316 318 322 333 331 327 327 336 340 341 334 340 338 337 334 335 331 332 329 325 320 323 318 301 298 298 301 300 314 317 305 302 301 299 312 309 305 299 295 291 284 278 275
267 277 283 298 298 302 307 312 316 321 319 320 325 328 336 331 334 335 334 328 327 329 333 337 334 332 331 327 312 308 306 309 312 299 299 320 313 305 305 301 306 316 312 306 291 285 278 277 275
273 278 285 293 299 303 306 305 311 314 317 320 321 325 329 331 330 328 327 329 328 329 324 328 329 326 323 318 311 311 314 313 302 295 308 298 310 300 303 295 306 302 301 308 302 293 286 276 269
269 276 286 286 289 298 300 304 309 310 315 317 320 323 325 328 327 327 328 334 333 332 332 329 328 320 323 315 309 298 305 304 321 340 261 294 298 287 286 298 307 306 289 295 301 296 291 281 273
270 278 280 281 291 300 306 305 305 310 316 317 319 323 324 323 325 327 329 331 331 330 332 331 334 332 328 321 294 288 288 313 328 287 274 274 267 290 283 289 301 304 282 286 297 293 287 284 280
272 274 275 285 292 295 303 304 308 312 314 316 320 324 323 317 320 327 329 330 327 327 328 326 327 326 322 316 309 286 263 296 282 279 282 261 274 277 290 304 300 302 286 292 290 291 286 281 275
Height
10997 10993 10988 10982 10974 10966 10959 10957 10960 10963 10966 10971 10974 10976 10979 10982 10985 10986 10989 10988 10987 10988 10987 10986 10986 10985 10984 10980 10978 10977 10976 10975 10975 10973 10972 10973 10973 10974 10972 10972 10971 10969 10966 10962 10961 10959 10956 10954 10951
11002 10999 10992 10987 10981 10973 10966 10964 10965 10965 10967 10968 10972 10974 10977 10980 10983 10985 10986 10986 10987 10987 10986 10986 10986 10985 10983 10980 10979 10977 10976 10974 10973 10973 10973 10974 10975 10975 10974 10973 10972 10970 10969 10965 10961 10961 10959 10957 10955
11007 11002 10993 10989 10984 10978 10974 10970 10971 10971 10970 10969 10971 10974 10978 10981 10983 10985 10984 10986 10987 10987 10986 10986 10985 10984 10984 10982 10980 10978 10976 10974 10974 10974 10974 10975 10976 10976 10976 10976 10975 10974 10972 10969 10966 10964 10961 10960 10959
11006 11000 10995 10990 10988 10983 10981 10979 10978 10977 10976 10976 10976 10977 10979 10980 10981 10983 10985 10986 10986 10986 10985 10985 10985 10984 10985 10984 10982 10979 10978 10977 10976 10976 10976 10976 10977 10977 10977 10978 10978 10977 10975 10972 10969 10967 10966 10962 10960
11007 11003 10995 10993 10993 10990 10988 10985 10983 10982 10980 10980 10980 10981 10981 10982 10984 10985 10986 10986 10985 10985 10984 10986 10985 10986 10986 10985 10984 10982 10981 10981 10979 10979 10978 10978 10978 10978 10978 10979 10979 10980 10979 10976 10973 10970 10969 10967 10964
11011 11004 11000 11000 11001 10997 10993 10990 10990 10989 10989 10986 10986 10986 10987 10988 10988 10988 10987 10986 10986 10986 10986 10986 10987 10987 10986 10985 10984 10983 10983 10982 10981 10980 10979 10979 10979 10979 10979 10978 10979 10979 10978 10978 10976 10973 10971 10970 10968
11014 11010 11009 11011 11009 11002 10998 10995 10995 10995 10995 10996 10995 10994 10995 10994 10993 10992 10991 10989 10989 10990 10990 10990 10990 10990 10988 10987 10985 10985 10984 10983 10981 10980 10980 10979 10979 10979 10979 10979 10979 10978 10978 10978 10977 10976 10974 10972 10971
11020 11017 11015 11014 11013 11006 11002 11001 11001 10999 10999 11002 11002 10999 10998 10999 10999 10997 10995 10993 10992 10992 10992 10991 10991 10990 10989 10988 10986 10985 10984 10983 10982 10980 10979 10980 10979 10978 10978 10978 10979 10978 10977 10977 10977 10978 10977 10974 10972
11023 11021 11021 11020 11019 11015 11011 11008 11004 11002 11002 11003 11004 11004 11002 11001 11002 11002 11001 10999 10997 10995 10994 10993 10992 10991 10989 10987 10987 10986 10985 10984 10983 10982 10980 10979 10978 10977 10977 10977 10977 10978 10978 10977 10977 10977 10977 10975 10974
11029 11026 11025 11024 11023 11020 11015 11011 11008 11008 11006 11003 11004 11007 11006 11003 11004 11004 11003 11001 10999 10997 10995 10994 10993 10991 10990 10988 10987 10986 10985 10984 10983 10982 10981 10981 10979 10977 10975 10975 10976 10975 10977 10976 10975 10974 10974 10974 10974
11032 11031 11030 11029 11028 11025 11021 11017 11016 11014 11010 11006 11006 11006 11007 11007 11005 11005 11004 11002 11000 10998 10996 10994 10993 10991 10990 10988 10987 10985 10984 10983 10981 10980 10979 10978 10979 10977 10974 10974 10973 10973 10974 10973 10974 10973 10973 10972 10973
11036 11035 11035 11032 11031 11029 11025 11023 11021 11018 11017 11017 11014 11010 11009 11009 11008 11005 11003 11002 11000 10997 10994 10993 10991 10990 10988 10986 10984 10983 10981 10979 10978 10976 10975 10974 10974 10973 10972 10971 10971 10971 10970 10971 10971 10972 10971 10971 10971
11036 11036 11035 11035 11034 11029 11027 11027 11026 11023 11022 11019 11018 11015 11012 11010 11007 11006 11002 10998 10996 10995 10993 10991 10990 10988 10986 10983 10981 10979 10977 10976 10973 10971 10968 10967 10967 10967 10967 10966 10967 10967 10967 10967 10966 10967 10969 10968 10969
11039 11036 11038 11037 11034 11032 11030 11027 11025 11023 11021 11020 11018 11016 11013 11009 11007 11005 11003 11000 10996 10993 10992 10992 10988 10986 10983 10980 10978 10975 10973 10972 10970 10967 10965 10962 10961 10960 10960 10959 10960 10962 10962 10961 10961 10961 10963 10964 10964
11039 11040 11039 11038 11037 11037 11032 11029 11027 11024 11023 11021 11019 11016 11014 11013 11008 11003 11000 10999 10996 10994 10991 10989 10986 10983 10980 10978 10975 10972 10970 10967 10965 10963 10960 10957 10956 10955 10953 10951 10950 10951 10954 10954 10953 10954 10957 10958 10958
11041 11041 11041 11039 11040 11039 11034 11031 11028 11027 11026 11024 11022 11019 11015 11013 11008 11002 10995 10994 10992 10991 10989 10987 10984 10980 10977 10974 10971 10970 10967 10963 10960 10959 10957 10953 10949 10949 10947 10945 10943 10943 10943 10944 10945 10944 10947 10950 10951
11041 11041 11039 11039 11041 11040 11035 11033 11032 11031 11029 11026 11023 11019 11015 11012 11007 11002 10998 10994 10989 10986 10983 10981 10979 10976 10972 10969 10966 10963 10961 10957 10955 10952 10949 10947 10944 10939 10936 10935 10934 10933 10935 10935 10935 10935 10936 10939 10942
11040 11040 11040 11040 11040 11039 11037 11036 11034 11032 11029 11025 11021 11016 11014 11009 11004 10999 10995 10991 10985 10980 10976 10973 10970 10967 10963 10961 10957 10955 10953 10953 10951 10947 10944 10941 10937 10934 10931 10928 10927 10926 10924 10924 10924 10924 10926 10927 10931
11038 11039 11040 11040 11039 11038 11038 11037 11034 11030 11028 11023 11018 11014 11012 11007 11004 10999 10994 10990 10984 10978 10973 10969 10965 10960 10955 10952 10950 10949 10948 10947 10944 10941 10937 10933 10929 10926 10925 10924 10922 10921 10920 10919 10917 10916 10916 10917 10918
11039 11039 11038 11038 11036 11037 11038 11036 11032 11028 11026 11021 11018 11014 11011 11006 11003 10998 10993 10987 10980 10976 10972 10968 10963 10958 10953 10949 10946 10946 10946 10942 10938 10934 10931 10927 10924 10921 10918 10917 10916 10914 10913 10912 10910 10909 10908 10909 10909
11036 11036 11036 11034 11036 11035 11034 11032 11029 11027 11023 11019 11015 11013 11011 11006 11001 10996 10990 10983 10976 10972 10968 10963 10958 10953 10950 10948 10947 10943 10938 10934 10930 10926 10922 10919 10916 10913 10911 10910 10908 10907 10906 10905 10903 10902 10900 10901 10902
11036 11036 11037 11036 11037 11033 11032 11029 11025 11021 11019 11015 11012 11010 11007 11002 10997 10990 10984 10977 10970 10965 10961 10956 10953 10949 10944 10940 10934 10931 10930 10928 10924 10920 10915 10910 10907 10905 10904 10902 10900 10897 10896 10896 10896 10896 10895 10894 10893
11039 11037 11039 11038 11035 11034 11031 11027 11022 11020 11014 11011 11007 11001 10994 10987 10982 10979 10976 10972 10964 10957 10952 10947 10943 10939 10934 10929 10928 10925 10922 10918 10916 10911 10907 10903 10898 10895 10892 10891 10892 10893 10890 10887 10885 10884 10884 10884 10886
11035 11037 11037 11037 11035 11031 11029 11026 11022 11018 11011 11003 11000 10998 10992 10983 10972 10965 10964 10958 10957 10954 10948 10942 10936 10931 10925 10923 10917 10911 10910 10907 10907 10904 10898 10895 10890 10888 10885 10881 10883 10884 10883 10883 10883 10877 10875 10872 10871
11031 11034 11034 11032 11031 11029 11027 11024 11021 11017 11011 11004 10999 10997 10993 10986 10977 10970 10967 10964 10958 10948 10944 10937 10931 10929 10921 10915 10909 10903 10901 10899 10893 10890 10889 10885 10883 10879 10876 10872 10870 10872 10875 10872 10870 10867 10864 10861 10860
11029 11029 11029 11028 11025 11024 11022 11020 11016 11014 11008 11003 10999 10993 10990 10981 10974 10969 10965 10957 10952 10944 10937 10934 10926 10915 10911 10912 10904 10899 10892 10887 10883 10878 10878 10882 10882 10874 10871 10869 10867 10862 10865 10868 10862 10857 10851 10849 10847
11026 11024 11024 11022 11021 11019 11017 11013 11008 11008 11002 10998 10993 10986 10982 10976 10970 10963 10961 10955 10948 10942 10936 10932 10924 10916 10907 10899 10892 10887 10885 10882 10878 10877 10867 10860 10870 10870 10864 10859 10863 10858 10853 10852 10851 10846 10839 10835 10831
11019 11018 11017 11017 11016 11015 11010 11007 11003 10999 10998 10992 10986 10978 10971 10966 10959 10954 10947 10941 10936 10933 10930 10926 10920 10913 10904 10896 10887 10881 10881 10875 10873 10865 10892 10872 10861 10862 10852 10847 10845 10841 10838 10835 10834 10830 10825 10818 10812
11012 11010 11010 11011 11011 11007 11003 10999 10995 10991 10988 10984 10979 10971 10963 10953 10945 10938 10934 10930 10922 10918 10915 10910 10904 10897 10891 10888 10878 10872 10871 10866 10861 10861 10844 10858 10853 10854 10839 10835 10827 10823 10818 10818 10820 10817 10810 10804 10799
11004 11002 11001 11003 11001 10996 10992 10989 10984 10981 10977 10972 10967 10960 10953 10945 10937 10931 10924 10917 10911 10907 10903 10900 10893 10889 10884 10877 10870 10861 10857 10852 10850 10844 10838 10840 10841 10840 10833 10822 10815 10805 10803 10803 10806 10804 10799 10794 10788